Overview Statistics Trail Chart Weather Telemetry Raw packets
 

This is the latest recevied weather packets stored in our database for station/object KD8DNO-13. If no packets are shown the sender has not sent any weather packets the latest 10 day(s).

<< 83 84 85 86 87 88 89 >>
Time Temp. Humidity Pressure Rain* Wind** Luminosity Snow
1787951283 27.22° C 60% 1021.3 hPa 0 mm - - -
1787950983 26.67° C 59% 1021.3 hPa 0 mm - - -
1787950683 27.78° C 57% 1021.3 hPa 0 mm - - -
1787950383 26.67° C 62% 1021.3 hPa 0 mm - - -
1787950083 27.22° C 60% 1021.3 hPa 0 mm - - -
1787949783 26.67° C 62% 1021.3 hPa 0 mm - - -
1787949483 26.67° C 62% 1021.3 hPa 0 mm - - -
1787949183 27.22° C 60% 1021.3 hPa 0 mm - - -
1787948883 26.67° C 63% 1021.3 hPa 0 mm - - -
1787948583 26.11° C 62% 1021.3 hPa 0 mm - - -
1787948283 26.67° C 59% 1021.3 hPa 0 mm - - -
1787947983 26.67° C 60% 1021.6 hPa 0 mm - - -
1787947683 25.56° C 63% 1021.6 hPa 0 mm - - -
1787947383 23.89° C 68% 1021.6 hPa 0 mm - - -
1787947083 24.44° C 69% 1021.6 hPa 0 mm - - -
1787946783 24.44° C 68% 1021.6 hPa 0 mm - - -
1787946483 25° C 64% 1021.6 hPa 0 mm - - -
1787946183 26.11° C 61% 1021.6 hPa 0 mm - - -
1787945883 27.78° C 58% 1022 hPa 0 mm - - -
1787945583 27.22° C 56% 1022 hPa 0 mm - - -
1787945283 27.78° C 57% 1022 hPa 0 mm - - -
1787944988 27.78° C 58% 1022 hPa 0 mm - - -
1787944683 26.67° C 60% 1022 hPa 0 mm - - -
1787944383 26.67° C 65% 1022.3 hPa 0 mm - - -
1787944083 25° C 67% 1022.3 hPa 0 mm - - -

* Rain latest hour (hover to see other rain measurements)
** Current wind speed in m/s (hover to see current wind gust speed)